Terug naar catalogus

SATCOM C3

ActiefMilitairGEO
NORAD 22117·PAYLOAD·🇺🇸 United States

Gelanceerd Sep 10, 1992 vanaf Guiana Space Centre

Loading…

TLE

VersSource: Space-Track

Epoch: Sep 14, 2026, 01:47 UTC

1 22117U 92060B   26257.07461675 -.00000164  00000-0  00000-0 0  9990
2 22117  14.0827  19.4253 0022176  23.4959 329.0480  0.97012707122623

Volg SATCOM C3 in realtime met AllMySat

Download on the App Store